DK9XR-14 Weather Reports


time (UTC)temp
F
wind
direction
speed
knots
gust
knots
rain 1hr
in
rain 24hr
in
rain mn
in
humidity
%
barometer
mb
20260507045121 47 300 2.6 7.8 0.00 0.07 0.00 87 1013.3
20260507044618 47 274 2.6 6.1 0.00 0.07 0.00 87 1013.2
20260507044118 47 279 3.5 6.1 0.00 0.07 0.00 87 1013.1
20260507043620 47 281 1.7 6.1 0.00 0.07 0.00 87 1013.0
20260507043118 47 275 2.6 6.1 0.00 0.07 0.00 87 1013.0
20260507042615 47 278 0.9 6.1 0.00 0.07 0.00 87 1012.9
20260507042119 47 265 1.7 6.1 0.00 0.07 0.00 87 1012.9
20260507041615 47 316 1.7 6.1 0.00 0.07 0.00 88 1012.9
20260507041113 47 285 2.6 6.1 0.00 0.07 0.00 88 1012.9
20260507040616 46 286 2.6 5.2 0.00 0.07 0.00 88 1012.8
20260507040113 46 274 1.7 5.2 0.00 0.07 0.00 88 1012.8
20260507035611 46 292 2.6 5.2 0.00 0.07 0.00 88 1012.7
20260507035108 46 257 1.7 5.2 0.00 0.07 0.00 88 1012.7
20260507034607 46 252 1.7 5.2 0.00 0.07 0.00 88 1012.5
20260507034104 46 286 1.7 3.5 0.00 0.07 0.00 88 1012.5
20260507033604 46 285 1.7 4.3 0.00 0.07 0.00 88 1012.5
20260507033104 46 210 1.7 6.1 0.00 0.07 0.00 88 1012.5
20260507032605 46 234 1.7 6.1 0.00 0.07 0.00 88 1012.4
20260507032105 45 224 1.7 4.3 0.00 0.07 0.00 89 1012.4
20260507031604 45 268 0.0 3.5 0.00 0.07 0.00 88 1012.5
20260507031104 45 223 1.7 2.6 0.00 0.07 0.00 88 1012.4
20260507030604 45 275 0.9 2.6 0.00 0.07 0.00 88 1012.4
20260507030106 45 257 0.9 2.6 0.00 0.07 0.00 88 1012.4
20260507025604 46 275 0.9 2.6 0.00 0.07 0.00 88 1012.4
20260507025106 46 276 0.0 3.5 0.00 0.07 0.00 88 1012.3
20260507024605 46 243 0.9 3.5 0.00 0.07 0.00 88 1012.3
20260507024105 46 257 0.0 1.7 0.00 0.07 0.00 88 1012.4
20260507023605 46 243 0.9 1.7 0.00 0.07 0.00 88 1012.3
20260507023107 46 231 0.0 5.2 0.00 0.07 0.00 88 1012.2
20260507022605 46 212 1.7 5.2 0.00 0.07 0.00 88 1012.4
20260507022104 46 228 0.9 3.5 0.00 0.07 0.00 89 1012.2
20260507021605 46 227 0.0 3.5 0.00 0.07 0.00 89 1012.3
20260507021105 46 237 0.9 3.5 0.00 0.07 0.00 89 1012.2
20260507020605 46 213 0.0 3.5 0.00 0.07 0.00 89 1012.1
20260507020104 45 206 0.9 3.5 0.00 0.07 0.00 90 1012.0
20260507015604 45 210 0.9 2.6 0.00 0.07 0.00 90 1012.0
20260507015105 45 231 0.9 2.6 0.00 0.07 0.00 90 1012.0
20260507014606 45 214 0.0 0.9 0.00 0.07 0.00 89 1011.9
20260507014104 45 183 0.0 1.7 0.00 0.07 0.00 89 1012.0
20260507013606 46 228 0.9 2.6 0.00 0.07 0.00 89 1012.0
20260507013104 46 171 1.7 2.6 0.00 0.07 0.00 89 1011.9
20260507012607 46 206 0.0 2.6 0.00 0.07 0.00 89 1012.0
20260507012104 46 207 0.9 2.6 0.00 0.07 0.00 89 1011.9
20260507011604 46 182 0.0 1.7 0.00 0.07 0.00 89 1011.9
20260507011105 46 238 0.0 3.5 0.00 0.07 0.00 88 1011.9
20260507010604 46 216 0.9 3.5 0.00 0.07 0.00 88 1011.8
20260507010104 47 214 1.7 3.5 0.00 0.07 0.00 88 1011.9
20260507005604 47 248 0.9 5.2 0.00 0.07 0.00 88 1011.8
20260507005105 47 204 0.9 5.2 0.00 0.07 0.00 88 1011.8
20260507004603 47 245 0.9 3.5 0.00 0.07 0.00 88 1011.8
20260507004104 47 234 0.9 4.3 0.00 0.07 0.00 88 1011.9
20260507003603 47 237 2.6 4.3 0.00 0.07 0.00 89 1011.9
20260507003106 47 276 0.9 5.2 0.00 0.07 0.00 89 1011.9
20260507002603 47 216 1.7 5.2 0.00 0.07 0.00 89 1011.9
20260507002106 47 233 2.6 6.1 0.00 0.07 0.00 89 1011.9
20260507001604 47 199 2.6 6.1 0.00 0.07 0.00 89 1011.9
20260507001105 47 243 1.7 5.2 0.00 0.07 0.00 89 1012.0
20260507000605 47 230 0.9 5.2 0.00 0.07 0.00 89 1011.9
20260506235604 47 173 0.9 2.6 0.00 0.07 0.00 89 1011.9
20260506235104 47 250 0.9 2.6 0.00 0.07 0.00 89 1012.0
20260506234605 47 238 0.9 2.6 0.00 0.07 0.00 89 1012.0
20260506234103 47 251 0.9 3.5 0.00 0.07 0.00 89 1012.0
20260506233605 47 244 1.7 3.5 0.00 0.07 0.00 89 1012.0
20260506233105 47 226 0.9 2.6 0.00 0.07 0.00 89 1012.0
20260506232604 48 266 0.9 4.3 0.00 0.07 0.00 89 1012.0
20260506232104 48 206 0.9 4.3 0.00 0.07 0.00 88 1012.0
20260506231606 48 244 0.9 3.5 0.00 0.07 0.00 88 1011.9
20260506230602 48 282 1.7 5.2 0.00 0.07 0.00 88 1011.7
20260506225602 48 258 0.9 4.3 0.00 0.07 0.00 88 1011.8
20260506225101 48 227 2.6 5.2 0.00 0.07 0.00 88 1011.9
20260506224603 48 279 1.7 5.2 0.00 0.07 0.00 88 1011.9
20260506224101 48 279 2.6 5.2 0.00 0.07 0.00 88 1011.8
20260506223602 48 265 1.7 5.2 0.00 0.07 0.00 88 1011.8
20260506223101 48 227 1.7 6.1 0.00 0.07 0.00 88 1011.9
20260506222602 48 261 0.9 6.1 0.00 0.07 0.00 88 1011.8
20260506222102 48 261 1.7 4.3 0.00 0.07 0.00 88 1011.8
20260506221603 48 241 0.9 5.2 0.00 0.07 0.00 88 1011.7
20260506221100 48 245 1.7 5.2 0.00 0.07 0.00 88 1011.7
20260506220600 48 258 1.7 4.3 0.00 0.07 0.00 87 1011.7
20260506220101 48 272 0.9 5.2 0.00 0.07 0.00 87 1011.6
20260506215557 49 269 3.5 5.2 0.00 0.07 0.07 87 1011.6
20260506215058 49 282 2.6 5.2 0.00 0.07 0.07 87 1011.5
20260506214559 49 271 2.6 5.2 0.00 0.07 0.07 87 1011.5
20260506214056 49 266 1.7 6.1 0.00 0.07 0.07 87 1011.4
20260506213557 49 257 3.5 6.1 0.00 0.07 0.07 87 1011.4
20260506213057 49 206 1.7 4.3 0.00 0.07 0.07 87 1011.4
20260506212554 49 261 0.9 4.3 0.00 0.07 0.07 87 1011.4
20260506212054 49 286 1.7 4.3 0.00 0.07 0.07 87 1011.4
20260506211554 49 238 1.7 7.8 0.00 0.07 0.07 87 1011.2
20260506211052 49 262 2.6 7.8 0.00 0.07 0.07 87 1011.3
20260506210552 49 185 2.6 5.2 0.00 0.07 0.07 87 1011.2
20260506210052 49 255 1.7 5.2 0.00 0.07 0.07 87 1011.1
20260506205550 49 302 1.7 7.8 0.00 0.07 0.07 87 1011.0
20260506205050 49 276 1.7 7.8 0.00 0.07 0.07 87 1011.0
20260506204552 49 282 1.7 8.7 0.00 0.07 0.07 87 1011.1
20260506204049 49 240 4.3 8.7 0.00 0.07 0.07 87 1011.2
20260506203548 49 231 1.7 7.8 0.00 0.07 0.07 87 1011.1
20260506203049 49 283 3.5 6.1 0.00 0.07 0.07 87 1011.1
20260506202546 49 258 1.7 5.2 0.00 0.07 0.07 87 1011.2
20260506202046 49 279 1.7 6.1 0.00 0.07 0.07 87 1011.1
20260506201547 49 240 3.5 6.1 0.00 0.07 0.07 86 1011.1
20260506201043 49 247 1.7 4.3 0.00 0.07 0.07 87 1011.1
20260506200542 49 245 1.7 4.3 0.00 0.07 0.07 87 1011.1
20260506200047 49 261 0.9 8.7 0.00 0.07 0.07 87 1011.2
20260506195542 49 248 1.7 8.7 0.00 0.08 0.07 87 1011.2
20260506195041 49 272 3.5 6.1 0.00 0.08 0.07 87 1011.2
20260506194543 49 235 3.5 6.1 0.00 0.08 0.07 88 1011.1
20260506194041 49 254 0.9 6.1 0.00 0.08 0.07 88 1010.9
20260506193540 49 252 2.6 6.1 0.00 0.08 0.07 88 1010.9
20260506193040 49 234 1.7 5.2 0.00 0.08 0.07 88 1010.8
20260506192536 49 258 1.7 5.2 0.00 0.08 0.07 88 1010.7
20260506192035 49 214 1.7 4.3 0.00 0.08 0.07 88 1010.7
20260506191531 49 235 1.7 4.3 0.00 0.08 0.07 88 1010.7
20260506191035 49 207 1.7 4.3 0.00 0.08 0.07 88 1010.4
20260506190530 50 259 1.7 3.5 0.00 0.08 0.07 88 1010.4
20260506190029 50 213 0.9 4.3 0.00 0.08 0.07 88 1010.3
20260506185530 50 234 0.9 4.3 0.00 0.08 0.07 88 1010.2
20260506185029 50 240 1.7 7.8 0.00 0.08 0.07 88 1010.3
20260506184529 50 251 2.6 7.8 0.00 0.08 0.07 88 1010.3
20260506184030 50 251 2.6 5.2 0.00 0.08 0.07 89 1010.1
20260506183529 50 272 1.7 6.1 0.00 0.08 0.07 88 1010.0
20260506183027 50 217 2.6 6.1 0.00 0.08 0.07 88 1010.0
20260506182527 50 244 3.5 6.1 0.00 0.08 0.07 88 1009.9
20260506182029 50 299 2.6 12.2 0.00 0.08 0.07 88 1009.8
20260506181525 50 316 1.7 12.2 0.00 0.08 0.07 87 1009.8
20260506181024 50 258 4.3 12.2 0.00 0.08 0.07 87 1009.6
20260506180520 50 278 5.2 12.2 0.00 0.08 0.07 87 1009.6
20260506180019 50 254 6.1 11.3 0.00 0.08 0.07 87 1009.6
20260506175521 50 271 7.8 11.3 0.00 0.08 0.07 87 1009.5
20260506175018 50 282 3.5 10.4 0.00 0.08 0.07 87 1009.5
20260506174518 50 285 4.3 10.4 0.00 0.08 0.07 87 1009.5
20260506174020 50 283 6.1 10.4 0.00 0.08 0.07 86 1009.3
20260506173015 51 276 4.3 11.3 0.00 0.08 0.07 86 1009.2
20260506172517 51 306 4.3 8.7 0.00 0.08 0.07 87 1009.0
20260506172012 51 312 3.5 10.4 0.00 0.08 0.07 86 1009.1
20260506171513 51 295 2.6 11.3 0.00 0.08 0.07 86 1008.9
20260506171006 51 298 5.2 11.3 0.00 0.08 0.07 86 1008.8
20260506170509 51 302 4.3 13.0 0.00 0.08 0.07 86 1008.9
20260506170006 51 300 5.2 13.0 0.00 0.08 0.07 87 1008.9
20260506165503 51 278 5.2 12.2 0.00 0.07 0.07 87 1008.9
20260506165004 51 290 6.1 12.2 0.00 0.07 0.07 87 1009.0
20260506164504 51 290 4.3 13.0 0.00 0.07 0.07 88 1009.1
20260506164004 51 262 7.0 13.0 0.00 0.07 0.07 88 1009.1
20260506163504 51 279 4.3 11.3 0.04 0.07 0.07 87 1009.0
20260506163004 51 261 6.1 12.2 0.07 0.07 0.07 88 1009.0
20260506162503 51 262 5.2 13.9 0.07 0.07 0.07 87 1008.8
20260506162003 51 289 3.5 16.5 0.07 0.07 0.07 88 1008.8
20260506161505 52 314 10.4 16.5 0.07 0.07 0.07 87 1008.7
20260506161003 52 262 7.8 14.8 0.07 0.07 0.07 88 1008.7
20260506160504 52 292 8.7 14.8 0.07 0.07 0.07 88 1008.5
20260506160005 52 333 5.2 16.5 0.07 0.07 0.07 89 1008.3
20260506155504 52 279 6.1 19.1 0.07 0.00 0.07 89 1008.5
20260506155005 53 268 7.8 19.1 0.07 0.00 0.07 88 1008.2
20260506154504 53 288 7.8 17.4 0.07 0.00 0.07 87 1008.3
20260506154005 54 216 7.8 20.9 0.07 0.00 0.07 85 1008.3
20260506153503 56 278 10.4 24.3 0.03 0.00 0.02 79 1008.2
20260506153004 59 214 8.7 25.2 0.00 0.00 0.00 66 1007.9
20260506152504 63 228 13.0 25.2 0.00 0.00 0.00 57 1007.3
20260506152004 65 235 0.9 2.6 0.00 0.00 0.00 54 1006.8
20260506151503 65 265 0.9 4.3 0.00 0.00 0.00 51 1006.5
20260506151005 66 233 0.9 4.3 0.00 0.00 0.00 50 1006.2
20260506150503 67 162 0.9 4.3 0.00 0.00 0.00 50 1006.1
20260506150004 67 157 3.5 4.3 0.00 0.00 0.00 50 1006.2
20260506145503 66 221 0.0 3.5 0.00 0.00 0.00 55 1006.4
20260506145006 66 173 1.7 2.6 0.00 0.00 0.00 52 1006.5
20260506144503 65 195 0.9 2.6 0.00 0.00 0.00 53 1006.5
20260506144004 65 274 1.7 4.3 0.00 0.00 0.00 54 1006.6
20260506143504 65 224 1.7 6.1 0.00 0.00 0.00 53 1006.5
20260506143001 64 251 0.9 6.1 0.00 0.00 0.00 54 1006.6
20260506142503 65 266 3.5 5.2 0.00 0.00 0.00 54 1006.6
20260506142001 65 224 1.7 4.3 0.00 0.00 0.00 54 1006.5
20260506141501 64 223 0.9 5.2 0.00 0.00 0.00 58 1006.1
20260506141001 64 203 0.9 5.2 0.00 0.00 0.00 56 1006.6
20260506140501 63 243 1.7 3.5 0.00 0.00 0.00 58 1006.7
20260506140001 63 261 1.7 3.5 0.00 0.00 0.00 60 1006.8
20260506135500 63 266 0.9 1.7 0.00 0.00 0.00 59 1006.7
20260506135003 63 289 0.9 1.7 0.00 0.00 0.00 60 1006.7
20260506134459 63 262 0.0 2.6 0.00 0.00 0.00 60 1006.9
20260506133958 63 276 0.9 3.5 0.00 0.00 0.00 56 1006.9
20260506133454 64 248 0.9 4.3 0.00 0.00 0.00 57 1007.0
20260506132954 64 220 1.7 4.3 0.00 0.00 0.00 52 1006.9
20260506132455 64 164 0.9 3.5 0.00 0.00 0.00 53 1006.8
20260506131954 65 240 2.6 3.5 0.00 0.00 0.00 52 1006.8
20260506131451 65 164 0.9 3.5 0.00 0.00 0.00 52 1006.7
20260506130952 65 130 0.9 4.3 0.00 0.00 0.00 52 1006.7
20260506130451 65 159 1.7 4.3 0.00 0.00 0.00 52 1006.8
20260506125948 65 137 2.6 4.3 0.00 0.00 0.00 52 1006.7
20260506125447 65 151 1.7 4.3 0.00 0.00 0.00 53 1006.7
20260506124943 65 96 0.9 4.3 0.00 0.00 0.00 53 1006.6
20260506124442 66 147 2.6 4.3 0.00 0.00 0.00 53 1006.6
20260506123941 65 202 0.9 2.6 0.00 0.00 0.00 53 1006.6
20260506123441 65 252 0.0 2.6 0.00 0.01 0.00 52 1006.6
20260506122939 65 121 0.0 2.6 0.00 0.01 0.00 53 1006.7
20260506122440 65 147 1.7 3.5 0.00 0.01 0.00 53 1006.6
20260506121941 64 134 1.7 3.5 0.00 0.01 0.00 53 1006.7
20260506121437 64 127 0.9 5.2 0.00 0.01 0.00 54 1006.7
20260506120936 64 192 1.7 5.2 0.00 0.01 0.00 55 1006.7
20260506120437 65 117 2.6 6.1 0.00 0.01 0.00 55 1006.6
20260506115936 65 87 1.7 6.1 0.00 0.01 0.00 54 1006.8
20260506115434 66 140 1.7 3.5 0.00 0.01 0.00 54 1006.8
20260506114935 66 206 0.0 1.7 0.00 0.01 0.00 53 1006.7
20260506114432 65 155 0.0 3.5 0.00 0.01 0.00 55 1006.7
20260506113933 65 28 0.0 4.3 0.00 0.01 0.00 54 1006.8
20260506113428 65 247 1.7 4.3 0.00 0.01 0.00 53 1006.9
20260506112926 64 272 0.9 5.2 0.00 0.01 0.00 53 1006.8
20260506112429 64 140 2.6 5.2 0.00 0.01 0.00 54 1006.8
20260506111928 65 214 2.6 5.2 0.00 0.01 0.00 53 1006.8
20260506111425 65 125 3.5 5.2 0.00 0.01 0.00 54 1006.9
20260506110926 65 171 3.5 5.2 0.00 0.01 0.00 53 1007.0
20260506110425 65 151 3.5 5.2 0.00 0.01 0.00 54 1007.0
20260506105923 65 85 2.6 5.2 0.00 0.01 0.00 53 1007.0
20260506105420 65 193 2.6 4.3 0.00 0.01 0.00 55 1007.3
20260506104924 65 148 0.9 5.2 0.00 0.01 0.00 55 1007.2
20260506104421 65 183 2.6 5.2 0.00 0.01 0.00 54 1007.3
20260506103922 65 162 1.7 5.2 0.00 0.01 0.00 55 1007.2
20260506103420 64 116 1.7 5.2 0.00 0.01 0.00 56 1007.3
20260506102921 64 212 2.6 4.3 0.00 0.01 0.00 56 1007.4
20260506102420 64 203 1.7 3.5 0.00 0.01 0.00 57 1007.6
20260506101918 64 165 2.6 4.3 0.00 0.01 0.00 57 1007.8
20260506101417 64 148 1.7 7.8 0.00 0.01 0.00 56 1007.7
20260506100919 65 254 4.3 7.8 0.00 0.01 0.00 57 1007.8
20260506100417 64 250 0.9 6.1 0.00 0.01 0.00 60 1007.8
20260506095916 63 285 2.6 6.1 0.00 0.01 0.00 61 1007.7
20260506095417 63 286 0.0 3.5 0.00 0.01 0.00 63 1007.8
20260506094914 63 306 1.7 3.5 0.00 0.01 0.00 62 1007.8
20260506094413 63 226 0.9 1.7 0.00 0.01 0.00 63 1007.9
20260506093915 63 172 0.0 1.7 0.00 0.01 0.00 63 1007.8
20260506093413 63 228 0.9 3.5 0.00 0.01 0.00 62 1007.8
20260506092911 63 121 0.9 3.5 0.00 0.01 0.00 61 1007.8
20260506092413 64 145 1.7 4.3 0.00 0.01 0.00 61 1007.8
20260506091911 63 219 0.9 4.3 0.00 0.01 0.00 63 1007.8
20260506091413 62 224 1.7 4.3 0.00 0.01 0.00 65 1007.8
20260506090910 62 223 0.9 3.5 0.00 0.01 0.00 64 1007.9
20260506090409 61 123 1.7 4.3 0.00 0.01 0.00 66 1007.8
20260506085908 61 169 1.7 6.1 0.00 0.01 0.00 66 1007.8
20260506085408 60 109 1.7 6.1 0.00 0.01 0.00 67 1007.8
20260506084904 61 188 0.9 4.3 0.00 0.01 0.00 66 1007.8
20260506084404 60 166 2.6 4.3 0.00 0.01 0.00 67 1007.8
20260506083902 60 305 0.0 2.6 0.00 0.01 0.00 70 1007.8
20260506083403 59 300 0.0 2.6 0.00 0.01 0.00 72 1007.9
20260506082902 59 295 0.0 1.7 0.00 0.01 0.00 75 1007.9
20260506082401 58 272 0.0 1.7 0.00 0.01 0.00 75 1007.9
20260506081902 58 265 0.0 1.7 0.00 0.01 0.00 75 1007.8
20260506081402 58 307 0.9 1.7 0.00 0.01 0.00 74 1007.9
20260506080904 58 1 0.0 2.6 0.00 0.01 0.00 76 1007.8
20260506080402 57 268 0.0 2.6 0.00 0.01 0.00 76 1007.7
20260506073402 56 254 0.9 2.6 0.00 0.01 0.00 79 1008.1
20260506072903 56 278 0.0 2.6 0.00 0.01 0.00 80 1008.2
20260506072403 56 241 0.9 1.7 0.00 0.01 0.00 80 1008.3
20260506071902 56 224 0.9 1.7 0.00 0.01 0.00 80 1008.2
20260506071403 56 230 0.9 3.5 0.00 0.01 0.00 80 1008.3
20260506070902 55 155 0.9 3.5 0.00 0.01 0.00 81 1008.3
20260506070403 55 221 1.7 3.5 0.00 0.01 0.00 81 1008.5
20260506062404 53 220 0.9 2.6 0.00 0.01 0.00 85 1008.1
20260506061903 52 203 0.9 2.6 0.00 0.01 0.00 85 1008.2
20260506061402 52 210 0.9 3.5 0.00 0.01 0.00 86 1008.3
20260506060903 52 244 1.7 3.5 0.00 0.01 0.00 86 1008.5
20260506060403 52 202 0.9 4.3 0.00 0.01 0.00 87 1008.3
20260506051402 48 226 0.0 1.7 0.00 0.01 0.00 92 1008.3
20260506050901 48 219 0.0 1.7 0.00 0.01 0.00 93 1008.5
20260506050404 48 148 0.9 0.9 0.00 0.01 0.00 93 1008.6